GFSMW_850_spd_000.txt.gz
Wind_Speed
18 16 11 5 4 0 1 8 7 10 6 5 7 8 7 6 7 6 11 14 15 18 26 24 20 20 22 21 23 26 27 28 26 30 31 32 32 31 32 36 37 38 38
17 14 11 8 9 9 11 9 4 9 6 7 5 5 7 7 8 6 10 12 17 23 37 29 23 19 22 23 21 21 25 27 27 29 33 36 36 31 30 30 33 39 42
15 14 13 13 12 12 11 9 8 10 10 8 3 2 4 5 11 19 30 25 28 35 21 19 20 23 25 26 24 24 24 27 27 25 26 32 32 33 31 32 33 34 30
13 14 14 12 11 11 10 8 7 5 3 1 12 16 17 15 22 32 30 28 19 18 15 17 20 22 25 26 23 24 27 30 29 27 21 22 23 18 25 25 22 25 29
12 11 11 11 10 8 7 6 4 3 8 14 13 12 10 19 21 17 16 16 11 15 20 22 24 26 29 31 24 26 25 23 22 22 23 25 30 34 25 26 26 27 25
7 7 8 8 8 6 5 4 5 6 14 11 9 19 20 17 13 13 12 13 18 24 21 24 26 26 24 23 23 22 22 23 23 28 26 26 25 24 19 24 37 33 41
6 4 7 6 3 5 7 9 11 13 12 17 17 11 11 11 11 13 15 20 25 18 21 21 23 22 21 20 24 24 22 24 22 24 24 24 24 28 23 18 25 26 35
3 4 3 3 4 6 9 13 13 14 15 15 12 12 11 11 13 16 21 20 17 20 19 18 20 19 21 22 21 21 23 23 26 21 18 26 29 23 21 19 19 24 24
4 1 6 3 4 9 12 13 17 15 15 12 11 11 11 11 18 22 17 17 16 15 18 23 24 20 24 24 26 25 25 27 29 25 28 23 18 17 17 17 18 19 22
4 7 12 13 14 15 16 15 13 13 13 14 13 16 21 19 16 16 17 15 19 24 23 20 23 21 20 19 25 29 30 30 23 23 24 22 19 20 19 19 21 21 24
7 7 14 17 18 21 18 18 18 12 15 17 20 24 16 15 15 16 17 19 24 30 24 24 27 25 23 25 25 25 24 22 23 22 22 23 23 22 21 21 22 23 24
14 17 17 17 21 23 19 13 17 19 24 24 14 17 17 17 16 18 22 24 20 18 19 21 23 24 24 24 26 26 25 25 23 22 23 26 27 29 25 22 22 23 23
12 13 15 19 22 22 23 28 22 17 22 21 16 16 19 17 16 18 19 17 20 21 22 23 23 23 23 22 22 22 19 16 17 21 25 25 27 27 27 25 24 22 21
14 15 18 20 21 24 21 19 22 25 27 26 16 14 21 17 16 16 18 19 21 22 22 22 21 22 23 24 23 21 23 27 31 34 29 30 26 27 27 25 22 23 23
16 18 20 22 21 20 21 23 24 27 28 25 22 27 23 19 13 15 16 19 21 21 21 23 23 25 24 23 24 28 30 32 33 35 35 29 27 28 26 27 28 27 30
17 19 21 19 19 22 24 27 29 31 22 21 27 26 25 21 14 14 15 17 21 20 24 23 25 24 23 22 28 33 33 34 36 39 38 26 24 26 26 21 25 24 26
19 20 18 19 21 23 26 29 32 33 33 30 27 23 23 20 14 14 15 17 21 24 24 26 24 22 21 24 31 35 37 38 38 31 25 27 25 25 22 21 21 22 23
16 17 19 22 21 27 27 30 31 34 36 35 31 25 25 16 12 13 17 17 22 24 27 23 22 22 23 25 33 36 33 34 34 26 25 27 26 26 25 25 26 25 26
17 20 22 23 27 26 28 32 34 34 35 37 26 26 16 14 16 11 18 18 25 24 21 23 24 28 32 33 31 29 33 31 31 26 23 23 26 27 23 23 25 25 24
20 23 24 26 26 27 31 31 32 33 35 31 33 20 12 15 14 14 15 20 21 21 26 28 30 33 31 25 27 30 27 29 31 27 28 27 24 26 25 23 24 24 24
22 26 26 26 24 28 29 29 31 33 27 24 19 16 15 15 14 14 18 20 21 24 23 26 30 28 23 25 24 26 24 27 30 29 26 21 19 19 21 24 26 26 27
25 26 28 26 28 29 28 27 28 30 25 27 22 21 18 15 15 16 17 21 22 18 20 27 25 22 20 25 24 24 24 31 25 24 23 24 24 24 23 18 13 15 17
26 28 27 29 31 27 26 27 27 26 24 23 23 19 16 15 15 19 22 19 16 19 26 26 28 23 26 25 22 27 29 24 23 22 20 15 19 19 10 12 12 12 7
28 26 30 31 27 28 29 26 25 24 23 21 18 18 16 17 19 14 17 17 18 24 25 25 26 26 27 24 25 26 25 24 22 18 16 16 16 9 13 12 10 8 8
25 30 29 29 29 31 29 25 27 29 18 16 14 14 15 13 16 15 16 16 19 23 22 23 23 26 28 27 23 21 24 22 20 14 16 15 14 15 16 13 10 9 10
30 29 29 31 31 29 28 29 22 19 20 18 15 15 14 13 16 12 15 17 20 20 22 21 23 26 25 30 22 19 20 17 17 13 14 16 16 15 17 16 13 13 14

GFSMW_850_spd_006.txt.gz
Wind_Speed
27 21 17 15 17 20 17 16 15 17 20 18 17 14 11 3 4 7 10 11 14 19 27 30 27 21 18 18 20 24 28 29 31 34 38 40 38 33 29 31 31 32 23
28 25 23 18 18 18 16 10 11 19 18 15 6 1 2 5 9 11 11 17 21 28 26 20 17 14 15 18 20 23 26 28 31 35 40 31 38 34 24 27 30 29 29
27 24 21 19 18 16 11 8 6 5 4 1 3 6 8 11 12 17 20 21 22 19 19 15 15 17 20 24 25 26 28 31 32 34 29 26 22 30 28 25 28 29 30
23 19 16 13 11 12 9 8 7 4 3 7 13 16 17 18 20 21 18 16 18 16 15 19 23 27 26 26 28 30 30 31 31 27 24 24 27 20 25 24 35 39 40
15 11 8 8 10 8 7 10 11 12 16 17 20 22 22 22 21 20 18 15 12 13 19 28 28 24 24 23 26 27 25 25 24 27 23 25 25 24 29 35 34 37 33
8 2 0 7 7 9 11 12 14 13 15 17 20 18 18 19 17 13 10 12 15 20 25 27 23 20 22 29 27 25 22 21 19 19 21 23 20 27 29 32 40 38 36
9 8 5 2 7 10 10 11 12 14 15 13 13 16 17 15 11 10 13 21 21 25 18 18 16 21 26 29 25 26 27 30 30 26 25 28 29 27 29 28 32 30 32
13 12 8 3 2 4 7 5 8 12 12 15 13 12 9 9 12 26 30 37 25 19 16 15 20 26 26 25 26 24 20 18 20 21 21 21 21 21 21 24 25 25 26
14 17 11 8 4 5 7 8 9 11 12 10 10 16 23 28 28 30 27 19 19 19 16 19 26 28 25 24 23 23 22 22 20 21 22 22 20 20 20 21 26 24 19
17 14 12 9 9 8 9 12 13 13 13 16 20 26 30 33 37 35 29 23 23 19 18 23 28 24 21 21 19 21 21 22 24 26 24 23 23 21 21 25 27 27 27
16 15 12 9 9 11 15 11 11 13 17 21 23 26 29 32 32 26 21 24 22 24 25 25 24 22 20 18 19 21 23 24 26 21 17 19 23 28 32 33 30 26 25
15 11 8 9 11 12 11 11 12 14 18 22 24 24 26 29 32 29 29 34 27 26 15 23 24 21 19 22 22 23 26 26 25 26 26 30 34 37 32 30 31 29 25
9 7 9 12 11 8 9 11 15 19 23 29 30 34 32 28 30 30 28 18 13 14 20 15 18 17 21 22 23 24 24 23 23 27 29 32 35 39 39 36 32 31 26
7 10 11 7 4 8 12 15 19 23 28 28 32 36 37 32 25 24 18 19 31 17 12 16 15 21 21 22 24 23 24 24 25 28 34 34 32 32 29 24 24 23 24
7 9 5 2 6 9 13 17 20 22 26 30 34 32 35 31 29 27 29 25 16 10 8 13 18 19 21 22 22 25 23 26 33 33 28 30 28 28 17 17 16 17 17
5 3 5 1 5 11 14 16 21 25 29 32 32 31 32 33 31 31 27 16 12 8 10 17 19 21 20 22 20 23 29 30 29 30 29 26 28 23 20 21 24 21 21
2 4 3 4 11 14 17 21 25 27 30 29 31 34 35 36 31 25 16 18 12 18 12 17 19 18 19 19 25 29 29 29 28 28 28 26 27 23 21 21 20 20 19
3 6 5 11 15 16 19 21 25 27 30 31 33 32 33 33 26 20 23 19 13 12 14 16 17 16 21 25 28 28 27 27 28 27 27 28 28 21 19 18 19 19 18
8 10 11 14 14 16 18 24 28 28 29 31 32 30 30 29 21 17 17 13 17 10 14 15 15 19 23 28 29 28 28 26 26 28 28 22 20 16 17 17 17 17 17
8 9 13 12 15 18 22 24 19 23 29 31 29 30 31 23 20 16 17 13 8 15 13 13 15 20 25 28 27 26 27 27 28 25 22 19 18 17 18 18 18 23 23
7 8 10 10 15 21 18 17 23 28 28 25 28 32 27 19 14 11 8 11 16 14 11 12 18 23 26 25 24 26 22 20 22 22 19 16 16 18 20 19 19 14 15
6 9 10 16 19 16 20 26 28 25 25 28 32 26 18 14 12 15 17 14 9 8 11 15 20 23 23 23 27 23 17 16 19 19 15 17 19 16 11 11 12 13 13
9 14 19 22 21 22 27 24 26 26 28 32 25 21 17 14 13 11 12 11 9 11 16 19 20 19 21 22 26 23 21 18 17 16 15 17 15 12 13 14 11 9 8
16 21 24 26 27 27 24 23 27 31 33 25 22 20 14 15 14 11 12 10 11 15 17 18 16 17 19 22 25 26 22 19 18 16 14 15 15 13 13 12 10 10 10
21 23 24 26 26 26 28 30 32 32 25 18 19 16 13 13 13 10 10 13 15 17 16 13 14 16 18 22 23 21 20 17 18 15 12 15 17 16 14 11 13 13 12
23 24 25 26 27 29 31 32 26 24 20 18 16 13 13 12 10 12 14 16 17 13 11 13 14 15 16 21 21 21 18 20 17 14 14 16 16 16 15 13 11 12 13

GFSMW_850_spd_009.txt.gz
Wind_Speed
17 12 12 13 14 20 21 18 12 7 9 8 12 12 6 1 4 7 11 14 14 17 23 28 26 24 19 17 18 21 23 25 29 32 35 37 28 22 26 18 19 25 28
27 23 17 12 10 12 11 6 6 7 8 8 5 2 6 7 12 14 13 17 23 23 25 23 22 20 18 19 22 25 27 28 29 31 33 21 29 16 22 28 21 22 26
23 18 17 15 13 9 10 8 6 0 5 7 8 9 9 11 14 18 20 22 21 21 19 17 18 21 23 24 25 26 27 29 28 26 22 16 12 29 24 28 25 24 32
24 21 19 18 15 12 10 8 5 5 6 7 10 13 14 15 17 18 20 17 18 16 16 17 22 26 26 27 24 26 28 28 27 25 21 20 22 23 24 18 35 38 37
18 19 17 15 12 10 8 8 7 7 10 13 14 16 16 17 18 15 13 12 13 17 19 22 31 31 21 23 26 32 28 25 21 20 24 27 23 17 21 32 28 34 36
21 20 16 11 10 6 4 3 2 5 9 12 14 16 16 16 14 15 13 14 23 25 34 37 24 21 24 27 29 32 26 26 25 25 22 20 21 24 24 25 31 30 36
16 14 12 9 6 3 2 3 4 7 11 13 17 17 15 14 16 19 24 31 29 29 27 21 20 22 21 23 22 22 23 22 19 18 18 17 18 19 20 23 26 23 30
15 14 11 6 5 5 4 2 4 8 9 10 11 13 15 19 22 21 25 26 29 24 20 16 13 17 22 21 19 18 20 20 19 16 17 19 18 15 15 18 21 29 24
15 14 10 8 6 4 3 5 8 9 8 9 12 16 19 22 25 27 29 31 29 24 16 12 19 16 21 19 19 19 16 17 18 20 22 20 19 19 19 20 23 23 25
20 17 14 10 5 1 6 8 7 7 10 13 16 18 18 19 24 26 29 28 24 22 22 27 21 10 18 20 20 18 18 20 22 22 22 21 19 19 22 25 29 28 25
20 17 11 5 1 5 6 3 4 8 12 15 21 24 25 30 32 30 29 26 23 19 22 22 11 20 15 16 19 20 21 22 24 23 22 22 24 27 29 30 31 32 29
17 11 7 2 3 2 1 4 8 13 17 21 26 26 31 33 31 27 22 22 20 26 26 30 27 12 16 16 19 21 23 23 25 24 24 27 31 34 36 36 37 33 29
12 7 3 3 3 3 3 8 12 17 20 23 26 31 35 31 31 29 22 21 23 24 30 27 16 12 16 18 20 22 24 25 25 24 28 34 36 33 31 31 30 26 24
6 4 5 4 6 5 7 10 14 18 21 26 31 34 30 30 30 29 23 22 25 27 19 15 12 12 19 20 21 23 23 23 23 30 33 31 29 30 28 30 23 18 18
5 4 4 7 6 7 9 13 16 20 25 28 30 28 30 31 29 28 24 20 18 18 17 13 9 16 18 20 20 21 22 26 30 32 29 27 27 27 25 22 24 23 25
5 4 6 8 11 11 13 13 17 22 27 28 27 27 29 30 28 26 21 17 17 20 14 15 17 16 19 18 19 21 26 29 29 30 29 27 29 24 27 24 21 20 20
6 7 9 11 12 13 13 16 20 22 25 24 25 29 28 27 29 26 20 18 21 18 11 15 15 16 17 19 21 25 28 28 29 29 27 28 28 27 23 19 17 18 17
8 9 11 11 12 13 14 15 21 23 21 21 27 27 28 29 29 23 17 13 14 13 15 11 13 16 19 21 24 27 26 25 26 26 26 24 22 21 19 20 20 16 16
9 10 9 12 10 11 13 20 21 17 19 26 28 25 27 32 25 22 19 17 16 13 10 12 13 18 19 23 26 25 27 29 26 21 21 19 18 16 19 19 19 20 20
8 9 10 8 9 12 17 17 15 21 28 26 24 25 32 26 21 17 14 9 8 11 10 15 15 17 20 23 22 24 26 25 22 21 18 15 15 18 20 21 20 22 22
9 8 7 7 12 17 18 19 24 26 23 23 23 26 27 21 17 13 16 18 18 17 11 10 14 18 20 20 21 24 23 20 20 20 18 17 18 18 16 15 15 16 17
8 6 8 14 19 20 21 25 23 21 23 23 27 25 23 20 16 15 13 11 10 9 9 12 16 17 17 17 21 22 20 17 17 19 17 19 18 15 15 16 14 14 12
6 9 15 19 19 21 22 23 23 25 28 29 28 21 19 18 14 15 13 10 7 8 11 14 15 13 14 16 20 20 21 20 17 18 16 17 18 16 15 13 11 13 12
9 15 18 20 22 22 22 23 26 27 26 26 19 17 17 14 14 14 12 8 9 12 14 14 12 11 13 15 20 19 21 22 18 18 16 16 16 15 13 10 11 14 11
13 16 19 21 22 22 24 26 27 27 24 22 17 17 19 10 13 11 8 12 14 16 13 10 10 11 13 15 18 17 19 20 20 18 16 16 17 17 15 12 12 14 12
14 17 19 22 22 24 27 28 25 23 21 22 19 18 18 8 9 10 12 15 18 12 10 10 10 10 11 14 17 17 17 18 19 18 17 17 17 18 18 17 14 13 13

GFSMW_850_spd_012.txt.gz
Wind_Speed
8 9 10 11 12 14 18 18 12 3 4 5 7 5 3 8 6 5 13 17 15 18 22 22 23 24 25 22 20 19 21 24 29 32 34 34 26 19 26 20 23 30 27
15 12 10 10 7 9 8 6 6 4 3 3 1 7 8 9 10 14 16 17 19 22 23 23 24 22 20 20 23 24 26 26 27 28 28 13 24 12 15 30 25 28 33
22 22 19 18 15 15 17 16 14 11 6 6 7 8 9 10 13 15 17 18 20 20 20 22 23 24 26 30 32 28 26 28 27 25 19 12 10 28 25 27 29 24 29
22 20 18 17 16 16 15 12 11 8 5 4 6 8 10 12 15 17 19 20 19 19 21 24 28 34 36 28 22 25 28 29 29 23 20 16 18 18 23 16 23 31 31
21 23 16 15 16 14 11 8 6 2 3 6 8 10 13 14 15 17 19 20 20 28 30 32 31 26 19 19 19 22 26 27 24 24 24 25 22 18 17 24 26 28 30
19 21 19 13 11 10 8 4 2 2 5 7 9 11 12 11 12 14 17 19 22 24 29 27 25 21 14 15 20 23 21 20 20 20 18 17 17 19 16 20 23 24 28
20 20 18 14 11 7 5 3 3 5 4 6 8 9 10 12 13 16 17 22 24 26 25 23 23 19 16 14 12 18 24 20 18 18 16 17 19 19 18 19 21 23 30
20 17 14 13 11 9 8 5 1 4 8 10 10 11 13 14 17 20 23 26 27 27 25 22 23 25 20 27 18 14 16 16 16 16 16 18 17 17 18 20 22 30 28
19 18 16 14 13 10 5 1 5 9 7 10 10 15 18 18 20 25 30 29 29 26 24 21 22 22 28 17 12 15 16 16 15 17 18 20 20 18 18 19 21 24 31
22 21 18 14 10 5 2 6 12 7 10 13 16 21 22 24 27 31 31 29 26 20 22 21 26 26 25 16 10 14 14 16 18 18 22 22 23 21 22 26 28 30 33
25 21 16 10 6 1 7 13 7 7 11 16 18 21 23 28 31 29 31 28 20 18 23 23 22 22 18 13 11 15 17 19 20 22 24 24 23 27 30 34 35 34 33
22 16 11 7 4 4 4 5 4 11 14 17 19 21 25 26 29 30 29 25 19 18 20 22 22 24 25 13 13 17 20 22 25 26 27 27 28 34 34 32 31 32 31
18 13 9 7 7 4 3 5 11 12 15 16 18 22 24 27 29 30 27 24 18 17 20 23 25 20 14 11 16 19 22 23 26 25 27 31 33 34 31 30 31 31 27
15 11 10 9 8 4 11 14 10 13 15 17 19 21 25 28 30 29 27 24 20 20 20 19 17 16 11 13 18 21 21 24 24 27 31 33 32 31 30 30 30 25 26
13 10 8 8 8 17 12 10 14 14 16 18 21 22 26 29 29 28 28 24 18 16 19 20 14 11 16 18 17 19 21 25 29 32 32 31 30 27 26 26 27 29 27
11 10 9 7 15 13 12 14 14 15 18 22 22 23 28 27 27 29 27 22 16 18 19 14 13 14 18 15 16 21 25 29 32 31 31 31 29 27 24 26 23 20 22
11 11 11 10 11 14 14 14 15 18 22 24 21 25 27 26 29 29 24 21 18 15 14 12 16 16 13 15 19 23 28 29 27 29 28 26 24 22 21 19 18 21 20
11 11 9 10 12 13 14 15 17 21 23 21 23 27 24 26 32 28 23 21 20 18 18 18 12 11 14 19 21 27 26 25 27 25 22 22 21 18 16 24 22 20 19
10 9 9 12 13 13 13 16 20 22 20 23 26 24 22 27 30 25 20 17 15 13 11 12 9 17 16 20 24 24 23 24 24 21 19 19 18 17 20 23 23 20 18
12 11 11 12 11 11 14 19 22 22 24 22 23 23 24 28 27 22 16 16 19 18 17 13 13 12 17 21 20 20 22 23 23 20 19 17 17 18 19 19 22 20 20
13 11 12 10 9 13 18 20 22 22 22 22 25 26 27 26 23 21 17 17 16 14 13 13 11 16 18 17 17 19 21 21 22 21 21 18 17 18 18 17 18 18 20
12 11 8 8 12 16 19 21 21 23 25 26 27 28 26 20 20 18 16 15 14 12 10 11 15 16 15 15 16 18 19 18 20 20 19 18 19 21 20 17 15 16 17
11 6 8 12 15 18 20 22 22 25 26 26 25 25 20 17 16 14 15 14 12 10 12 16 16 14 12 14 16 18 17 18 19 19 18 17 19 19 18 15 14 16 15
4 10 12 15 17 18 19 21 24 26 27 24 23 20 17 16 17 13 13 10 10 13 16 17 14 11 11 13 15 17 17 18 19 19 18 16 17 16 16 15 13 14 14
10 10 13 16 18 20 21 23 25 27 24 23 21 17 17 17 18 11 9 10 13 15 17 12 11 11 10 11 13 15 16 17 19 18 17 15 16 18 18 17 15 14 12
8 12 14 17 19 21 23 25 25 22 22 22 19 23 17 13 14 10 9 12 14 15 13 12 12 11 11 11 12 13 14 16 17 16 16 16 17 18 19 19 18 16 13

GFSMW_850_spd_015.txt.gz
Wind_Speed
12 12 12 11 9 8 9 11 12 5 2 5 3 5 2 4 3 4 9 12 13 15 16 17 18 19 20 21 22 24 26 28 27 27 20 22 18 15 22 26 21 25 29
12 10 9 9 8 7 6 7 9 10 11 9 6 5 3 1 5 8 12 14 15 16 17 18 19 21 25 27 27 26 20 19 22 21 16 14 15 12 13 17 24 22 30
20 21 21 18 18 22 20 18 16 14 11 9 5 1 2 5 8 13 15 16 17 17 18 21 22 25 26 24 20 14 15 14 21 23 12 11 11 21 12 17 19 17 19
26 24 24 25 25 23 21 19 18 15 10 6 2 3 5 8 11 13 14 14 14 17 20 22 26 27 25 19 15 16 18 18 16 18 13 15 15 17 21 17 18 21 22
23 24 23 21 19 18 18 16 12 9 5 3 4 6 7 7 8 8 10 13 16 21 24 26 28 27 24 21 19 17 19 19 16 21 18 13 12 12 14 25 21 21 19
23 22 21 20 20 16 15 12 10 8 5 3 4 5 7 8 9 11 14 17 21 25 27 27 26 26 25 23 18 16 23 23 16 15 13 11 12 14 16 18 20 24 24
22 21 21 19 17 16 13 11 9 5 1 4 7 9 11 14 15 17 20 24 28 29 29 26 25 23 23 18 17 24 16 12 13 15 11 12 13 14 15 16 20 22 27
22 18 16 14 15 15 12 10 7 3 3 7 10 11 12 14 14 19 24 27 28 28 27 26 24 22 20 19 24 15 10 13 13 14 14 15 15 20 19 18 19 27 28
23 19 15 15 16 15 11 6 4 5 5 8 10 10 15 17 20 25 27 29 28 27 24 21 20 20 17 22 16 12 10 13 14 15 18 20 21 21 22 23 21 20 32
22 19 19 18 15 11 9 4 4 7 9 11 11 15 18 21 26 28 29 29 28 25 21 20 20 21 25 20 13 12 10 14 17 18 20 22 24 24 23 25 26 23 27
24 24 21 17 13 11 5 4 7 10 15 11 12 16 18 23 26 27 28 26 24 21 15 16 19 22 23 23 23 14 13 17 20 21 24 23 23 24 22 23 24 25 25
24 24 19 15 13 10 3 4 7 15 8 9 13 16 19 21 24 28 26 25 23 20 16 16 21 22 23 27 16 14 14 18 21 22 24 24 25 26 24 25 24 24 24
26 22 18 16 12 7 2 6 14 10 7 11 14 18 19 21 25 27 26 25 25 22 20 18 23 26 20 16 12 13 17 19 22 22 25 28 31 27 26 26 26 24 23
26 22 18 14 11 7 3 17 6 7 11 13 17 19 19 22 26 27 26 27 24 21 17 16 22 19 10 10 13 18 19 21 22 24 30 33 30 24 25 24 23 23 22
25 21 17 14 11 8 15 7 8 12 12 16 19 20 20 23 27 26 28 27 23 20 18 19 20 16 14 15 17 19 19 21 25 30 31 30 29 28 24 21 21 22 22
24 20 16 13 13 9 9 10 11 12 16 19 22 21 21 26 27 26 29 27 23 20 17 17 14 14 13 17 15 16 20 24 30 29 29 27 25 19 20 20 17 15 19
24 20 17 15 9 7 9 11 13 15 18 22 23 22 24 28 25 27 29 26 22 20 17 17 18 18 14 11 16 20 23 28 26 26 25 23 18 18 16 17 20 21 19
22 18 15 12 10 10 11 13 15 16 21 23 21 23 27 25 25 27 27 23 17 16 15 14 14 11 11 17 18 22 26 23 23 23 22 18 17 15 17 20 21 19 18
19 14 13 12 11 11 13 13 14 18 21 23 25 24 24 24 25 28 24 20 15 17 17 16 14 13 15 15 21 23 22 20 21 21 17 17 16 16 17 19 19 20 19
17 15 13 12 11 11 10 11 16 19 22 22 22 22 23 25 28 27 21 18 16 16 16 13 12 13 13 19 21 21 20 20 20 19 18 19 16 15 18 18 18 19 19
18 16 12 12 8 7 10 14 17 19 19 20 22 23 24 26 25 20 17 16 15 15 14 13 13 13 18 19 18 18 19 18 19 19 18 17 17 18 19 18 15 16 20
17 15 15 9 7 10 13 15 16 17 19 21 23 24 24 23 17 15 15 14 14 13 13 11 13 18 19 17 16 16 17 17 18 19 19 18 18 20 19 18 18 16 18
17 13 8 6 10 11 13 15 16 18 20 23 24 23 23 19 15 14 14 14 13 11 11 13 17 18 17 15 15 15 17 16 16 17 18 18 17 18 19 18 17 16 16
13 7 9 8 8 10 13 16 17 20 23 24 23 23 20 18 16 15 15 13 10 9 13 16 18 15 14 14 14 15 16 16 16 17 17 17 16 16 16 17 16 15 14
14 10 8 8 9 11 14 15 19 21 22 21 21 19 19 20 17 14 12 11 10 12 14 15 13 14 15 14 13 14 16 16 17 17 16 15 16 16 17 17 17 17 13
8 8 8 8 10 11 13 17 20 21 18 18 19 17 19 18 15 13 12 13 13 13 15 15 13 14 15 14 13 14 14 15 16 17 16 15 15 16 17 17 17 17 16

GFSMW_850_spd_018.txt.gz
Wind_Speed
9 9 12 12 12 10 10 11 12 8 6 8 9 9 7 4 3 4 5 7 10 12 12 11 12 12 12 17 19 18 19 21 18 20 21 21 20 15 15 16 17 15 17
11 10 10 10 10 11 11 11 11 11 13 11 9 8 7 5 4 6 9 12 12 13 12 13 10 14 16 17 17 19 17 16 15 16 21 22 22 21 12 18 19 19 20
12 12 13 13 13 13 14 15 16 16 13 12 9 7 4 3 3 5 7 10 12 12 14 15 20 21 20 18 16 12 11 13 14 14 17 18 20 23 23 18 22 19 20
15 17 16 15 16 17 17 16 16 14 14 12 9 8 4 3 4 4 5 6 14 16 19 22 25 23 20 15 12 11 12 10 14 18 16 16 19 22 25 22 21 22 21
18 18 18 18 17 17 18 17 16 15 13 10 6 3 1 1 2 4 7 10 12 15 17 18 19 19 17 14 16 11 9 11 18 17 16 14 14 16 18 24 24 23 20
18 18 17 16 15 15 17 15 14 12 10 6 3 1 2 4 4 8 11 13 16 17 18 20 19 18 15 13 10 13 13 16 13 10 10 12 14 15 17 20 23 24 25
20 20 18 17 16 14 14 14 12 11 8 4 2 4 7 8 8 10 12 17 18 18 19 20 19 17 15 13 16 14 16 11 10 11 11 11 13 15 18 21 26 27 29
21 19 18 16 16 16 14 13 12 9 6 5 6 7 8 10 8 12 16 15 17 18 20 19 17 14 13 13 15 12 14 12 11 11 12 14 16 17 19 22 24 29 31
22 19 17 17 17 17 15 13 11 9 6 7 11 9 9 12 15 18 17 17 17 18 19 18 14 13 12 14 14 16 17 14 14 14 15 16 18 20 21 22 23 25 32
22 19 17 16 17 17 16 12 10 6 8 11 7 5 9 13 16 18 18 18 18 19 18 17 16 15 17 18 17 20 17 16 16 17 18 19 21 22 22 22 23 25 29
23 20 18 17 18 17 15 12 7 5 8 1 4 5 10 14 17 17 16 17 19 18 18 17 16 17 19 23 21 21 20 15 16 17 18 20 22 22 23 24 26 28 29
23 22 20 20 19 19 16 11 1 6 4 6 6 8 12 16 12 13 16 17 18 18 18 17 16 17 19 22 23 18 13 14 18 19 20 21 23 24 25 26 27 29 30
23 23 22 22 21 20 17 10 4 7 10 8 8 8 10 11 12 14 17 17 18 18 17 17 17 17 19 20 16 12 12 15 17 15 17 22 24 25 25 25 27 27 26
24 24 23 23 21 20 18 9 16 8 10 9 9 9 11 12 14 15 17 18 19 19 17 16 17 18 16 13 12 12 13 14 11 14 17 22 21 21 22 24 23 23 22
25 26 25 23 21 20 19 13 10 12 12 12 10 12 13 14 15 16 18 19 20 18 17 17 16 14 11 13 14 11 10 11 15 17 19 18 20 29 22 18 19 19 20
25 26 24 22 21 20 15 11 13 13 14 13 12 14 16 15 16 18 17 18 19 18 16 16 16 13 11 20 15 11 10 15 16 18 17 17 18 16 21 19 20 16 20
25 26 25 22 20 19 13 13 13 16 16 14 16 19 17 17 17 17 17 18 18 17 14 14 12 12 9 12 10 15 16 17 16 15 15 16 15 19 17 18 19 21 20
24 24 22 19 17 15 11 13 15 16 15 16 20 20 16 16 17 16 17 18 17 14 13 13 11 8 9 13 16 16 19 16 13 14 14 15 16 16 20 18 19 19 19
21 21 19 18 20 17 16 15 16 15 15 17 19 15 17 15 16 17 17 18 16 14 13 12 10 8 9 14 15 20 19 14 15 13 13 15 14 16 17 18 20 19 19
20 20 19 22 21 18 12 16 13 14 16 18 16 17 15 15 16 17 17 14 13 13 11 11 10 13 12 16 18 19 16 14 14 13 13 16 20 20 17 17 17 18 18
20 21 21 19 17 13 14 12 13 13 15 15 16 16 15 15 17 15 12 11 12 12 12 14 14 14 14 17 19 18 16 14 15 13 14 13 20 20 19 19 14 18 20
18 18 18 18 15 12 10 10 10 14 14 16 17 17 16 15 14 12 11 13 12 11 11 13 13 11 15 17 18 15 15 16 17 14 14 17 19 18 18 16 18 18 16
17 18 18 13 9 10 8 10 11 13 15 17 18 15 13 14 12 12 13 14 12 11 10 9 10 12 14 13 14 13 15 16 15 15 16 17 17 17 15 17 17 16 13
16 15 14 9 8 8 8 11 13 14 16 17 14 13 15 16 15 13 14 13 13 11 9 11 12 13 13 12 11 11 10 13 13 13 16 16 15 15 16 13 13 12 13
18 9 2 4 6 9 10 12 14 16 17 14 12 13 13 14 14 14 13 12 12 12 11 11 12 14 13 12 14 13 11 11 13 17 13 12 12 11 11 11 11 11 13
10 6 3 7 9 11 11 13 16 16 15 15 14 12 14 12 14 13 13 13 14 17 17 17 17 16 16 15 15 14 14 15 15 14 11 12 12 12 11 11 11 11 12

GFSMW_850_spd_021.txt.gz
Wind_Speed
14 12 11 11 13 14 14 18 16 14 9 9 9 8 9 8 8 6 6 2 3 6 9 4 8 10 11 13 16 19 20 20 20 21 21 21 23 20 16 22 15 13 17
14 12 11 12 12 13 14 12 11 11 9 9 10 9 8 8 8 6 2 3 5 5 4 9 9 11 14 17 18 18 19 17 16 19 21 24 24 19 15 17 19 24 19
16 14 14 13 12 13 14 12 12 12 12 12 11 11 10 7 5 1 0 4 4 5 8 10 12 15 16 17 18 17 15 17 17 16 18 24 23 25 23 23 24 25 23
17 16 15 15 14 14 14 14 16 15 12 11 10 9 5 5 4 1 2 3 7 9 11 13 15 16 17 18 17 15 15 15 17 18 20 21 22 24 29 22 21 21 23
18 19 18 18 18 18 18 17 15 12 11 10 8 6 5 4 2 1 4 6 8 11 12 15 16 18 18 17 16 17 15 15 18 21 20 18 18 19 22 27 25 23 23
21 21 21 21 19 18 17 16 14 13 12 11 10 10 8 4 1 3 5 6 10 11 12 14 16 17 18 17 16 16 15 18 18 18 16 17 17 19 20 23 25 27 26
23 24 23 20 19 18 16 16 15 14 13 12 10 8 7 5 1 6 6 9 9 11 13 16 17 17 17 17 17 17 18 18 16 15 17 16 16 16 17 20 24 27 29
24 23 21 19 18 17 17 16 15 14 13 12 11 7 6 10 3 4 6 7 10 12 15 16 17 16 15 16 20 18 18 16 14 16 15 15 15 16 18 20 23 27 31
24 23 21 19 18 18 18 18 16 15 14 12 3 8 10 3 2 4 6 8 10 12 14 15 16 16 16 17 20 19 18 17 17 17 15 14 16 17 17 20 22 25 30
23 22 21 19 19 19 19 19 18 17 13 6 6 4 2 4 3 5 8 11 12 13 14 15 16 16 17 18 20 22 23 22 20 20 14 15 18 17 19 21 23 24 29
24 23 21 21 21 21 21 21 20 16 9 5 1 7 6 6 5 8 10 11 13 14 15 16 17 16 16 18 20 23 22 21 20 15 15 16 16 18 20 24 26 28 29
24 23 22 22 23 24 23 23 19 13 8 6 9 9 8 7 9 10 11 13 14 15 16 17 16 17 18 18 18 22 19 15 14 13 15 17 18 21 24 26 26 27 28
25 24 24 25 25 25 24 23 18 12 10 11 10 11 11 11 11 12 13 14 15 16 17 17 17 18 16 21 16 17 15 13 13 13 14 17 19 23 24 22 23 25 26
25 26 26 26 26 26 25 23 18 12 9 10 13 13 13 13 13 14 14 15 16 17 17 17 18 18 18 16 14 12 12 12 13 11 13 18 21 20 18 22 20 20 22
23 26 26 26 26 26 25 24 19 10 11 14 14 14 14 14 14 15 16 16 17 16 17 17 18 18 17 13 10 12 11 11 12 15 18 19 20 26 26 22 19 18 19
21 24 26 26 27 27 26 24 16 14 15 15 14 14 14 14 15 16 17 17 16 17 17 17 16 15 12 14 16 13 9 11 15 18 18 16 17 16 21 19 22 22 20
19 23 26 26 26 25 24 24 15 14 15 13 13 14 14 15 15 16 17 17 17 17 17 15 13 12 11 15 13 11 14 12 15 16 15 15 14 17 16 18 22 21 21
17 20 22 23 23 23 23 18 15 14 13 11 12 13 13 16 15 15 16 17 17 17 15 14 13 11 13 15 15 13 15 13 13 13 13 13 14 15 22 23 19 19 19
15 17 18 20 20 21 20 18 16 14 11 10 11 12 13 14 16 16 16 17 17 16 15 14 12 12 14 17 18 15 15 13 13 12 12 13 14 16 22 22 19 19 19
13 15 16 17 18 18 17 15 12 7 8 9 9 14 13 13 16 16 16 16 15 13 15 13 12 12 14 19 19 16 16 12 12 12 11 15 21 23 22 21 20 19 19
12 13 14 15 14 15 14 9 7 4 8 12 14 13 13 14 15 15 15 14 13 13 13 14 12 11 14 15 18 18 16 11 12 11 11 10 20 20 20 19 18 18 25
8 8 9 10 11 9 7 1 2 5 12 15 15 13 14 14 13 15 15 14 15 14 13 14 15 13 14 17 20 18 14 14 15 14 11 14 18 19 18 17 17 20 16
6 7 12 14 13 9 3 4 5 12 14 16 14 13 13 13 14 16 16 17 15 14 13 12 12 12 14 15 16 17 16 15 14 13 13 17 17 16 15 14 18 18 14
8 12 11 9 6 7 3 3 10 15 14 13 12 12 14 16 17 14 15 15 14 14 14 12 12 14 12 11 14 16 15 15 16 12 15 19 13 15 16 15 12 13 14
11 10 9 8 4 3 5 9 14 13 14 15 15 15 16 14 18 15 16 15 14 14 13 14 14 15 18 15 17 15 14 15 15 18 19 12 12 12 11 12 12 12 12
10 9 11 7 1 4 10 14 14 15 14 15 16 14 14 16 16 17 18 17 18 16 20 23 24 24 22 19 18 18 17 17 17 17 12 11 13 12 12 12 12 12 12

GFSMW_850_spd_024.txt.gz
Wind_Speed
16 16 15 14 15 20 19 17 22 21 17 19 9 8 6 9 11 11 8 7 2 2 0 7 5 7 11 13 16 19 19 21 20 19 17 18 22 15 14 13 11 12 15
22 16 14 15 16 16 17 19 18 16 11 9 10 10 12 11 11 9 6 5 4 5 2 11 12 13 17 19 17 19 21 17 14 17 21 20 21 19 18 22 22 21 18
24 18 16 16 16 18 17 15 11 11 15 12 15 15 18 16 12 2 4 4 8 6 10 12 14 18 18 16 17 20 15 17 16 14 14 20 16 25 21 19 22 23 22
23 21 18 17 20 21 18 12 14 13 16 18 16 13 11 12 13 13 10 0 7 8 7 8 12 13 18 21 17 15 19 21 18 15 15 20 23 22 27 18 18 21 20
22 22 20 22 17 16 16 18 19 18 17 13 18 16 14 13 10 8 2 1 7 9 11 13 17 19 21 20 21 18 20 21 19 17 19 18 17 18 20 25 19 21 23
19 19 21 20 22 21 22 24 19 16 16 16 17 18 17 16 11 7 4 10 11 10 12 16 19 18 16 16 17 19 19 19 17 22 16 14 15 17 17 19 23 24 24
20 23 23 24 23 24 25 23 20 19 19 21 21 21 19 14 9 8 9 12 10 12 13 17 18 17 18 15 16 20 20 23 26 17 16 18 21 17 15 18 23 23 29
21 24 25 24 23 22 22 22 23 20 18 17 18 17 11 6 8 12 10 9 10 11 13 16 18 17 16 14 18 22 23 24 21 20 19 18 18 19 16 16 19 26 30
22 24 24 24 23 22 23 24 22 21 19 20 19 12 7 8 7 9 7 7 10 11 12 17 16 16 16 15 20 22 22 20 21 20 23 19 19 14 17 19 18 22 29
24 24 24 23 22 22 22 23 23 23 24 23 16 10 9 7 9 8 6 9 11 13 13 15 16 17 18 16 16 18 18 21 25 25 23 24 14 16 18 15 18 21 27
25 25 24 24 22 21 23 24 24 25 25 21 14 11 8 11 10 7 8 11 14 13 14 15 16 17 16 17 16 18 19 22 25 20 16 17 13 15 15 17 21 23 24
26 27 25 24 22 22 23 24 25 24 20 20 15 9 12 13 8 9 9 11 14 14 15 16 17 17 17 19 24 24 18 18 15 13 11 12 14 13 17 21 22 26 29
24 27 29 26 24 24 26 24 26 23 20 17 14 14 14 12 13 11 12 14 15 15 17 17 17 18 18 19 18 13 16 15 13 15 14 14 13 19 21 23 28 29 29
20 23 28 28 26 25 28 26 26 23 18 16 18 13 13 14 13 12 14 16 17 17 18 16 17 18 19 19 17 11 11 16 14 14 13 14 18 20 23 26 31 26 24
19 22 23 26 26 25 26 27 26 24 20 21 15 13 16 14 14 15 16 17 18 20 18 16 17 18 17 18 14 16 16 12 11 11 14 16 19 23 25 23 25 24 26
13 12 16 17 21 23 25 26 25 24 17 14 17 16 15 13 13 17 17 19 19 18 18 19 17 17 18 20 17 15 13 11 12 14 16 19 16 17 19 20 19 24 27
11 12 12 17 18 21 23 26 24 22 15 20 16 12 13 10 15 16 16 17 17 19 21 19 18 17 17 19 16 14 14 14 11 14 16 17 12 18 19 22 25 26 19
7 9 11 15 17 18 19 22 20 20 18 14 11 12 10 11 13 18 19 16 17 19 20 19 18 17 18 17 18 16 17 16 13 15 18 15 14 21 23 23 26 23 19
8 10 11 11 13 14 16 18 17 13 12 11 7 4 10 16 18 15 15 18 19 19 19 18 16 14 17 18 19 17 17 17 16 15 15 14 18 22 23 25 24 22 21
12 11 10 9 8 10 11 13 15 12 7 4 4 5 13 19 19 16 19 20 18 17 15 17 17 16 16 19 20 19 19 19 16 13 14 15 18 20 23 24 22 22 21
11 7 1 7 8 11 12 13 11 12 9 4 6 11 16 16 16 18 17 17 19 16 17 21 23 20 18 21 21 20 18 19 18 16 14 12 20 22 22 20 19 18 22
4 3 9 14 12 11 15 13 9 5 6 7 9 15 17 16 12 17 20 21 16 17 19 20 20 20 19 20 20 19 16 17 17 17 16 15 17 19 16 15 15 16 17
9 9 12 12 11 8 4 2 4 3 4 8 16 17 13 13 17 19 20 19 16 16 17 19 21 19 17 16 20 19 16 17 17 16 16 14 18 14 14 15 16 17 19
12 8 7 7 6 6 7 5 3 2 10 15 14 11 15 16 18 17 18 15 20 17 17 19 19 20 16 16 15 14 16 18 17 16 15 18 17 11 14 14 14 16 17
9 4 5 3 1 1 2 2 7 13 12 13 14 14 15 16 17 18 15 19 23 21 19 22 19 19 21 19 19 22 23 19 16 19 21 22 12 14 15 13 12 15 17
2 4 4 3 3 2 5 9 11 13 14 14 14 15 16 16 16 15 19 23 23 21 21 20 22 26 28 27 26 23 21 22 23 24 23 20 11 14 16 14 12 15 16

GFSMW_850_spd_027.txt.gz
Wind_Speed
23 22 21 23 27 27 25 25 20 22 25 27 30 16 12 11 14 11 9 9 9 7 8 9 10 12 15 17 19 22 21 21 22 21 22 19 18 11 9 15 15 16 16
29 25 20 28 27 32 31 25 20 20 19 28 27 14 13 18 15 11 11 10 9 7 6 8 12 15 17 19 18 19 20 18 18 20 20 12 21 8 10 15 18 22 19
31 30 30 20 27 31 30 18 18 17 17 21 21 16 18 17 16 14 13 11 7 5 8 11 14 16 17 18 19 20 19 18 17 16 17 9 5 25 13 23 17 15 18
36 32 31 29 21 25 22 17 15 15 24 24 23 25 26 26 20 15 14 9 6 9 13 13 15 17 18 20 22 20 20 21 23 20 14 17 21 24 21 11 15 14 17
40 35 31 29 26 19 21 12 14 19 18 20 25 24 26 24 22 20 16 12 9 13 18 19 20 19 20 20 18 17 16 17 19 20 20 20 22 18 20 22 19 21 22
38 34 29 25 24 22 21 20 22 23 27 27 27 25 27 29 27 25 16 9 11 16 17 16 16 17 18 17 15 15 17 18 20 21 21 22 15 18 20 21 22 23 25
31 31 29 29 24 21 22 26 29 30 29 26 28 27 27 27 23 18 13 12 14 13 14 15 16 17 17 16 13 16 18 21 24 24 22 17 16 18 19 18 18 21 29
26 28 30 29 27 28 28 30 29 28 28 29 28 26 23 20 18 16 17 16 13 12 14 14 15 17 18 16 15 16 21 24 19 19 20 20 19 24 23 21 18 22 28
24 27 29 29 30 29 29 26 26 26 27 27 28 25 23 20 17 15 13 12 10 11 12 13 14 17 18 17 13 16 16 17 16 16 21 23 23 22 26 15 14 15 20
24 26 28 27 25 25 24 24 25 26 25 24 22 18 16 15 14 13 11 9 12 13 13 15 16 17 19 15 14 15 16 18 20 21 22 20 20 17 13 9 13 15 16
32 31 30 28 27 25 22 26 25 25 25 23 20 18 14 13 13 12 11 11 13 15 17 19 18 18 17 16 19 19 21 23 21 21 16 13 13 13 10 11 16 20 24
35 35 34 32 30 29 27 28 29 27 28 27 21 16 13 14 13 11 11 13 13 15 20 20 20 20 16 16 20 22 22 21 17 16 14 14 9 12 14 18 22 25 26
34 36 36 37 36 33 31 31 32 31 29 28 22 17 14 14 13 10 14 14 16 18 20 20 21 20 17 18 20 20 12 15 16 16 17 17 15 17 19 22 25 28 32
34 36 40 40 40 38 35 33 32 33 30 27 20 18 13 14 13 19 16 16 17 21 22 23 25 18 18 19 20 21 19 18 15 15 16 14 16 18 20 24 29 28 28
18 29 38 40 38 35 31 30 31 32 31 26 19 16 14 14 19 14 15 13 20 20 24 22 19 20 22 21 22 23 18 18 17 14 14 16 18 21 24 25 25 27 26
4 7 7 35 32 34 30 30 31 31 32 28 20 14 10 12 13 12 12 14 21 21 20 20 20 22 23 22 25 22 16 15 14 16 17 19 23 23 21 22 24 24 27
3 4 7 11 20 26 26 29 30 31 30 22 12 16 19 16 11 9 8 18 22 23 19 21 23 24 22 21 21 20 19 18 17 18 17 18 21 20 21 22 25 23 24
10 7 5 5 8 13 19 25 28 27 21 14 22 19 13 10 9 5 11 16 23 20 21 24 24 23 22 19 20 20 19 19 18 18 18 18 18 18 21 23 23 24 22
8 7 5 3 6 8 15 23 24 24 22 24 21 14 7 3 4 9 13 20 21 26 23 19 21 20 19 18 17 19 19 19 20 19 18 16 17 19 21 23 25 25 20
8 3 3 8 10 14 23 27 27 26 22 14 13 12 5 5 7 11 18 19 24 16 19 19 20 20 22 22 23 23 21 20 18 19 17 16 18 19 20 23 24 21 17
1 4 6 9 16 18 21 23 20 16 12 7 3 8 6 6 13 16 16 16 21 24 24 18 20 23 25 23 20 19 19 18 17 18 15 18 18 18 20 21 17 14 15
6 5 6 11 11 10 9 12 11 4 4 15 8 3 7 14 14 12 17 21 22 19 17 19 18 21 23 23 20 19 18 19 18 17 15 16 17 14 17 13 11 13 15
7 7 5 6 5 2 1 6 13 15 2 3 6 11 12 11 13 18 19 17 17 18 21 23 22 19 22 22 21 18 18 19 18 17 16 17 13 16 13 12 13 13 16
8 7 8 8 8 8 10 4 2 4 4 9 12 12 12 14 14 15 15 15 16 19 24 26 21 23 21 20 22 20 19 17 19 18 18 19 18 19 15 13 14 14 15
11 10 9 7 5 4 3 1 5 8 11 13 13 13 13 14 15 16 16 15 17 21 24 24 22 20 23 24 23 23 21 21 22 20 21 23 22 21 17 14 15 13 14
9 9 9 7 5 6 8 11 13 15 16 15 15 15 16 16 17 18 17 17 22 24 24 26 25 23 23 23 26 28 28 24 21 23 24 24 24 22 17 14 15 13 14

GFSMW_850_spd_030.txt.gz
Wind_Speed
39 34 32 35 32 33 37 34 31 33 30 29 30 29 23 13 15 13 12 11 11 9 8 9 11 13 14 17 20 21 20 20 21 19 19 20 8 10 10 13 14 14 15
41 37 34 36 34 32 34 31 31 30 28 26 27 27 23 17 14 12 12 12 11 10 11 11 12 14 18 20 19 19 20 20 19 17 18 5 18 4 9 18 16 21 21
44 43 42 41 37 37 32 27 25 23 27 26 28 30 22 18 19 17 15 14 14 15 13 11 13 19 19 18 19 21 20 18 18 19 15 9 6 19 11 18 6 8 14
42 41 41 42 40 38 34 28 26 27 29 27 34 36 29 26 23 20 19 19 18 14 11 13 18 20 17 18 19 21 20 19 17 17 19 18 19 20 14 11 15 17 15
44 42 39 39 37 36 35 24 27 26 26 26 35 33 29 25 23 25 24 22 18 15 13 17 20 17 18 18 18 17 17 16 16 18 18 19 21 24 22 22 17 20 23
38 39 38 33 28 28 30 28 17 22 26 29 32 31 30 29 31 29 25 20 16 14 16 17 17 18 17 17 17 16 14 13 15 17 20 21 22 17 18 24 25 24 24
40 39 37 32 29 29 27 23 19 26 29 29 28 30 31 34 35 30 24 19 19 18 18 17 14 14 15 15 15 15 15 16 19 21 17 18 17 19 21 21 25 25 25
38 40 38 33 30 31 28 25 23 26 25 26 28 29 31 30 27 24 22 20 17 13 10 11 15 15 15 16 16 15 15 17 18 21 20 18 20 23 25 27 30 28 31
34 37 36 33 32 28 29 25 26 26 29 26 26 25 24 24 24 22 19 15 10 11 11 14 14 16 18 18 17 16 15 16 19 20 23 24 24 22 23 25 23 16 14
32 33 33 32 31 27 27 26 27 28 30 27 24 23 24 24 21 19 16 15 13 10 15 15 17 18 19 20 18 17 17 19 21 24 27 24 21 18 17 17 16 13 16
34 34 33 32 29 28 28 27 30 30 30 28 26 25 24 23 19 18 17 13 11 15 16 17 21 22 21 21 18 18 21 24 26 24 22 21 19 18 15 15 16 16 21
36 34 32 32 33 33 31 30 30 32 33 32 30 26 24 23 22 19 16 15 15 15 15 17 19 23 23 22 19 19 22 22 25 23 19 18 17 19 17 16 18 22 24
37 38 36 37 38 37 36 35 35 34 32 31 29 27 24 22 20 17 15 14 16 15 13 17 18 24 24 21 20 22 23 21 20 22 17 18 18 16 17 19 21 23 26
37 38 40 41 42 42 41 39 36 33 30 32 31 28 25 20 17 17 17 18 17 10 12 17 22 22 23 21 20 22 22 20 23 17 20 17 19 20 21 22 25 26 24
30 34 38 41 43 42 41 38 35 32 32 33 32 29 23 18 16 18 18 18 10 9 10 17 22 24 22 21 20 20 20 20 19 20 18 20 22 22 23 25 23 23 25
7 7 18 36 39 40 39 38 35 35 33 33 31 25 18 16 19 21 20 15 10 3 14 21 20 20 21 20 19 20 21 20 18 18 18 20 20 22 23 22 21 21 25
12 10 6 4 15 28 32 34 34 35 33 32 24 20 20 21 22 19 15 7 7 13 14 19 18 19 20 21 22 20 21 20 20 21 22 21 22 22 21 19 19 22 21
10 7 6 4 4 11 20 27 34 31 31 27 24 24 26 27 22 12 2 13 13 12 21 21 22 25 23 21 18 18 20 21 22 21 21 22 23 21 19 19 21 21 23
5 2 3 5 5 15 21 26 27 29 30 25 24 19 12 7 1 9 14 7 15 19 19 20 17 17 19 18 18 20 22 23 21 20 19 20 21 19 19 20 22 23 21
3 0 3 5 9 12 19 24 28 32 29 25 18 9 5 16 13 4 5 14 16 16 17 20 22 23 20 20 21 22 21 20 19 19 19 19 18 19 19 19 21 21 17
7 6 7 3 5 11 17 23 23 20 12 8 8 9 15 10 5 10 13 13 14 18 21 21 19 19 21 20 21 21 21 21 20 20 19 19 17 17 17 17 19 16 15
11 10 10 13 13 11 6 7 5 6 8 12 17 13 4 9 10 10 11 14 17 19 20 18 18 18 21 21 22 22 22 20 22 21 19 19 18 15 14 17 16 15 15
12 12 11 13 11 8 4 2 6 7 7 1 3 8 10 10 11 13 15 17 17 18 19 19 22 26 20 20 24 26 23 22 23 22 20 20 20 16 15 17 15 14 15
13 11 9 8 7 4 5 6 7 6 5 7 10 12 13 14 14 15 17 18 19 19 20 21 26 29 25 21 19 25 25 28 27 24 22 20 21 20 19 19 16 14 14
10 8 8 10 11 10 8 7 6 8 10 12 14 15 16 17 17 18 19 20 19 19 22 25 28 29 31 29 24 23 24 24 24 21 21 23 24 23 23 20 18 15 14
13 13 12 10 9 7 7 9 10 12 14 15 16 17 19 19 21 23 25 23 23 22 25 24 21 26 27 28 26 27 25 24 24 26 26 26 24 24 23 21 20 17 14

GFSMW_850_spd_033.txt.gz
Wind_Speed
30 31 33 33 34 34 34 31 31 31 30 30 31 29 28 24 19 14 9 10 11 11 12 12 10 8 10 15 17 19 20 22 21 22 20 19 11 9 11 14 13 16 18
36 35 34 35 34 36 37 36 34 31 32 32 31 31 28 25 17 11 12 13 13 12 11 11 10 11 14 17 22 24 24 23 22 20 20 6 11 16 11 11 19 19 16
42 41 38 38 35 37 34 36 37 35 35 34 33 31 29 23 20 17 17 15 13 13 12 12 12 13 16 19 24 25 24 22 21 18 12 7 4 16 14 10 15 10 11
43 44 45 44 43 41 37 37 39 35 35 35 35 34 34 32 27 20 19 16 17 15 13 14 14 15 16 21 24 23 22 21 18 15 14 13 15 14 12 14 17 18 22
46 46 48 46 44 44 39 39 39 38 35 37 36 34 34 31 25 22 21 20 19 16 16 15 14 14 18 22 21 20 20 17 14 12 11 13 16 19 23 27 19 17 18
45 45 44 44 44 45 42 39 40 30 33 34 32 35 33 29 27 26 25 23 20 19 18 17 15 14 18 20 22 20 17 16 14 14 16 17 18 18 19 23 24 25 27
40 45 46 48 45 45 42 41 32 33 31 29 32 29 32 29 28 27 28 27 25 22 20 16 15 21 17 22 19 17 16 15 15 15 16 17 17 18 20 23 27 29 27
40 45 46 45 44 41 39 39 28 27 25 30 30 27 29 31 31 31 32 29 26 21 16 13 21 16 15 15 15 16 15 15 14 15 17 18 21 21 21 23 23 26 24
29 42 43 42 39 35 33 25 25 27 25 29 27 28 30 30 29 31 30 28 22 18 18 20 8 12 15 14 16 15 15 14 13 15 19 23 22 19 18 20 22 23 21
24 31 36 37 37 31 29 23 26 25 25 30 26 27 29 28 29 31 32 29 27 23 22 9 11 12 12 14 16 15 15 15 17 19 20 21 21 18 16 17 20 18 18
22 24 27 33 34 30 29 24 26 27 29 30 27 30 29 29 30 30 29 28 24 21 17 17 11 10 13 15 18 17 16 16 18 19 22 22 20 19 20 21 19 17 18
20 21 28 35 36 34 32 30 27 30 33 32 30 26 25 27 28 30 28 24 22 18 17 13 10 10 13 17 20 17 17 18 18 18 21 22 18 18 20 19 17 20 20
24 28 32 35 36 36 35 32 34 37 35 33 28 25 27 27 29 28 25 25 23 19 15 15 7 10 15 19 20 20 17 19 18 18 18 21 18 19 18 19 20 20 23
25 30 31 34 34 35 35 35 38 39 36 29 27 27 28 29 29 27 25 23 17 16 15 9 7 11 20 21 19 18 19 18 18 18 19 19 18 18 20 21 22 24 24
22 29 31 31 34 37 38 39 40 38 33 30 30 29 31 30 26 25 21 17 19 15 10 9 8 18 22 21 18 20 18 18 18 18 18 19 18 18 20 22 22 22 21
4 10 19 27 34 37 38 38 36 34 34 31 30 31 29 24 21 20 24 20 19 13 10 14 23 17 22 17 19 18 18 18 18 19 18 19 19 21 22 22 21 20 20
8 6 2 3 9 19 26 30 32 31 31 33 31 31 27 25 25 24 22 18 11 5 16 24 15 21 21 21 20 18 19 19 20 20 20 20 20 21 21 21 20 19 21
8 6 4 1 2 6 12 19 24 26 28 28 28 27 27 24 21 20 16 7 9 21 26 13 19 23 22 18 17 19 19 20 21 21 22 20 20 19 20 19 20 21 21
5 4 4 4 5 8 12 16 19 21 23 23 21 20 19 17 11 6 9 19 23 13 13 19 19 21 22 21 19 17 18 21 22 22 22 21 18 18 20 19 20 21 21
2 0 2 2 2 2 6 10 12 16 18 19 20 17 8 4 7 13 17 15 10 14 15 18 21 24 24 22 20 19 21 22 22 22 22 21 19 19 18 19 19 21 19
4 3 4 3 5 4 0 3 9 12 14 15 13 12 16 16 16 11 10 12 13 14 18 22 22 22 20 20 20 20 23 24 23 23 24 22 21 20 19 18 19 18 17
9 9 9 12 13 11 6 9 6 5 4 9 12 13 8 8 10 11 12 13 15 19 21 23 24 21 21 22 21 21 23 25 29 28 24 23 22 22 20 19 17 17 17
13 12 11 12 12 9 5 2 2 1 1 3 3 6 9 11 13 15 16 18 19 22 23 25 25 25 23 25 25 23 22 26 31 33 27 25 26 24 23 21 19 17 17
13 11 9 9 7 7 8 8 7 5 4 5 8 10 12 14 15 17 19 21 22 24 26 26 26 27 29 26 24 24 25 26 27 29 28 33 33 25 25 23 22 20 18
12 9 9 12 12 10 7 5 3 4 6 8 10 11 13 15 17 19 21 23 25 27 30 29 29 30 30 26 26 26 28 27 28 27 26 25 27 26 29 26 24 23 20
15 14 13 11 9 5 2 3 5 8 11 14 16 18 21 22 24 26 29 27 28 29 30 32 32 33 32 31 30 27 27 26 24 24 27 26 28 28 29 27 24 23 22